Theta_e
346 345 346 343 341 339 334 332 332 330 331 329 325 325 327 330 333 336 340 342 343 343 341 337 335 333 331 331 330 331 331 330 330 329 330 331 332 332 332 330 331 332 331 330 328 330 331 326 324 323 320 322 328 332 331 330 328 323 322 317 314 313 312 311 309 309 307 313 320 318 314 315 316 315 314 313 313 312 313 314 315 314 313 312 313
347 344 346 344 342 341 337 334 333 331 330 329 326 324 327 330 333 336 339 340 342 343 342 337 333 333 332 331 330 331 332 330 329 329 329 331 333 333 333 332 332 334 334 333 331 333 333 328 326 326 324 324 326 330 331 331 329 324 320 317 315 312 310 309 309 308 308 317 319 316 316 315 315 314 312 312 313 312 313 314 314 313 312 313 313
346 343 343 344 343 342 339 337 335 333 330 328 326 324 326 331 333 334 337 340 341 342 342 338 335 333 332 330 330 331 331 329 330 330 330 331 333 334 333 332 333 334 335 334 333 334 334 331 327 325 325 325 325 326 330 331 329 324 320 316 314 312 309 308 308 308 312 319 317 315 316 315 315 313 312 312 311 312 312 312 312 312 312 313 312
344 342 342 344 344 342 340 339 337 334 330 328 326 325 326 329 332 333 336 338 340 342 342 340 337 334 332 329 329 330 330 330 330 329 331 331 332 333 333 333 334 334 335 335 333 334 335 333 329 327 327 326 327 326 328 330 329 323 320 317 313 311 308 306 307 308 314 319 319 321 323 324 321 314 312 311 310 311 311 311 311 311 312 312 311
343 341 341 343 344 344 340 339 338 337 332 328 326 325 326 329 331 332 335 337 339 341 342 341 339 335 331 329 329 329 329 330 330 330 331 332 332 333 333 334 335 334 335 335 334 334 334 333 331 330 329 327 327 326 328 331 328 323 322 319 313 309 307 306 306 308 314 320 325 329 329 329 325 316 311 311 310 311 311 311 311 311 311 311 311
344 342 341 342 343 344 341 340 339 337 333 329 327 326 327 328 330 330 333 336 339 341 342 341 339 334 331 330 329 329 330 330 330 331 332 333 333 333 334 334 335 335 335 335 334 333 332 332 331 331 329 327 326 326 331 332 328 323 322 320 315 309 306 306 306 307 313 323 329 332 330 328 326 318 312 311 311 311 311 310 310 310 310 311 310
344 343 342 342 344 344 342 341 339 335 333 331 327 327 327 328 329 329 331 334 338 341 342 341 338 334 332 331 330 329 331 331 329 330 332 333 333 333 334 333 334 334 334 334 334 332 331 330 328 327 326 325 324 328 334 332 329 324 321 322 317 312 308 306 308 306 313 327 330 331 331 329 327 320 312 311 310 311 311 309 309 310 310 310 309
342 342 343 344 345 344 343 341 340 336 335 333 328 327 327 328 330 329 330 334 337 339 340 339 337 334 332 331 330 330 330 330 330 331 332 332 332 333 332 331 331 331 331 332 332 329 329 328 325 324 325 324 324 330 335 332 329 325 321 321 318 315 310 307 308 305 315 329 330 330 331 329 325 316 311 311 311 310 310 309 309 309 309 309 309
341 342 344 345 345 344 342 341 340 339 337 333 329 327 326 328 330 330 330 332 335 336 337 336 334 333 332 330 329 329 330 330 331 332 333 332 332 331 331 329 328 329 328 328 328 327 327 327 324 326 326 324 325 331 335 333 329 325 322 321 319 316 311 309 307 308 322 329 328 330 331 329 323 312 311 311 311 311 310 310 309 308 308 309 309
340 342 342 343 345 344 341 341 341 340 339 335 330 328 327 327 328 329 329 330 332 333 334 333 332 332 331 329 329 328 328 330 331 332 333 331 330 330 329 328 326 326 326 327 327 326 325 324 325 328 326 322 326 332 335 333 329 326 322 320 320 315 313 309 305 311 325 329 326 327 328 329 325 313 311 311 310 311 311 310 309 307 308 308 308
338 341 342 341 342 344 342 341 342 340 339 337 333 329 327 328 327 327 327 328 330 331 332 332 331 331 330 329 328 327 328 330 331 332 331 329 329 328 327 326 325 324 324 325 325 324 323 323 324 327 324 316 323 332 334 332 329 327 322 320 319 316 314 307 310 316 323 329 325 321 322 325 320 310 309 310 310 310 310 309 308 308 307 308 308
337 339 340 341 341 342 342 342 342 341 340 339 336 333 329 328 328 327 326 325 326 328 329 330 330 330 329 328 328 328 329 331 331 332 329 327 328 327 326 324 323 323 322 323 323 323 323 323 322 325 323 315 323 332 333 331 328 327 322 322 320 317 313 307 315 318 322 329 320 313 324 324 312 307 309 308 309 309 309 308 308 307 307 307 307
335 337 338 340 341 342 342 342 342 341 340 339 338 336 333 331 331 330 328 325 322 323 327 329 329 328 327 327 329 329 330 331 331 332 327 326 327 325 324 322 323 323 322 322 322 322 323 324 323 323 321 319 328 333 333 331 328 327 322 323 322 318 312 308 316 320 324 326 316 318 325 321 309 307 309 308 308 309 308 308 307 307 307 307 307
325 332 337 340 342 342 342 342 341 339 339 340 339 337 336 334 333 332 332 329 322 321 325 327 327 327 326 326 329 330 331 329 328 329 326 325 325 323 322 322 323 322 322 321 321 322 322 325 324 323 321 324 331 333 331 330 327 325 322 323 323 318 311 308 314 320 322 319 319 322 319 311 307 307 308 307 308 308 307 307 307 307 307 306 307
317 326 335 339 341 341 342 342 341 339 339 340 339 338 337 335 334 332 333 333 324 320 324 326 326 326 326 326 328 329 329 327 324 326 326 324 324 324 324 324 323 322 322 321 320 322 322 324 324 322 321 325 331 332 330 327 326 323 321 322 322 318 313 313 316 318 317 317 319 321 320 312 307 307 307 307 307 307 307 307 307 307 307 307 307
314 321 329 334 337 338 339 340 341 340 340 339 339 339 337 335 334 332 333 333 326 321 324 325 324 324 326 326 326 327 325 324 323 324 325 325 325 326 326 325 323 322 321 318 318 319 321 323 322 321 322 324 327 330 329 325 323 322 321 321 321 318 313 318 322 317 317 320 319 322 325 313 306 309 307 307 307 307 307 307 307 306 307 307 307
314 316 321 329 333 335 337 337 339 341 340 339 339 338 337 335 335 334 332 332 326 321 323 323 321 321 324 324 325 324 322 323 323 324 326 327 327 327 326 325 322 322 320 318 315 314 317 321 320 320 323 325 323 323 327 325 322 321 321 321 321 317 312 318 322 318 316 319 321 325 326 311 305 310 307 308 307 307 307 306 307 306 307 307 307
314 314 317 323 326 331 335 337 337 338 338 338 338 337 337 335 334 335 334 332 327 321 320 319 318 320 322 324 323 321 321 322 323 325 327 328 328 327 326 325 323 321 320 319 315 312 316 318 317 318 322 326 322 319 323 323 321 320 321 320 319 316 313 314 320 319 311 313 321 327 326 311 305 308 306 308 307 307 307 306 306 306 307 306 307
311 312 314 318 320 321 326 333 336 336 337 337 337 337 336 335 335 335 335 334 328 322 319 316 318 321 322 323 321 321 323 323 323 325 328 329 329 327 326 326 324 322 320 319 315 313 317 318 315 317 322 324 321 317 321 321 318 318 319 319 317 316 312 315 323 320 309 309 320 326 322 308 305 307 306 307 307 307 306 306 306 306 306 306 306
308 310 311 314 318 318 318 326 332 335 336 337 338 338 338 337 335 335 334 334 331 325 319 316 319 321 322 322 321 323 324 325 324 327 330 330 329 328 327 327 324 323 322 319 317 317 318 317 314 316 320 320 318 316 320 320 318 315 314 316 316 313 314 321 324 320 318 313 315 321 315 305 307 306 306 307 307 306 306 306 306 306 306 306 306
308 308 309 311 315 318 319 321 327 333 336 336 337 338 338 337 335 334 334 334 333 328 320 317 321 323 323 322 323 326 328 326 325 328 330 329 330 329 329 327 325 324 323 319 319 320 319 317 315 316 318 319 320 320 321 321 320 315 312 314 313 315 321 322 318 318 323 316 313 317 307 305 308 306 307 307 307 307 306 306 306 306 306 306 306
312 310 307 309 311 315 319 319 322 329 334 335 336 338 338 338 336 334 334 334 333 330 324 322 326 328 327 326 327 329 330 329 327 329 329 330 331 329 329 328 326 326 323 319 320 320 320 320 318 318 319 321 323 324 323 323 322 319 316 313 312 322 326 317 313 318 321 316 317 315 305 306 307 306 308 306 307 307 306 306 306 306 306 306 306
311 311 307 307 308 310 315 317 317 322 329 333 335 337 338 338 337 335 335 335 333 332 329 328 329 330 331 330 330 331 332 331 329 328 329 332 332 329 330 329 327 327 323 320 320 321 321 321 321 320 321 323 325 326 326 326 323 320 318 315 318 328 326 314 315 321 319 317 317 311 305 307 306 306 307 306 307 306 306 306 306 306 306 306 306
308 309 307 306 307 307 311 313 314 316 321 328 332 335 338 338 336 335 336 335 333 332 330 330 331 330 331 330 330 332 333 332 330 329 329 331 332 330 331 330 327 327 324 321 321 321 322 322 323 323 322 324 326 326 327 328 327 324 322 321 324 330 325 319 322 325 323 319 314 308 305 306 306 307 308 307 307 306 307 306 306 306 306 306 306
307 310 309 306 307 306 308 311 314 315 315 320 327 331 335 338 337 335 335 335 334 333 330 328 331 332 331 330 331 332 331 333 332 329 329 330 332 332 331 330 328 328 325 323 323 321 323 324 323 324 325 325 326 326 326 329 329 329 327 326 328 328 326 324 326 329 327 320 313 307 306 306 306 306 307 308 307 306 306 306 306 306 306 306 306
311 312 309 307 308 308 307 309 312 314 315 317 321 327 333 338 339 337 335 334 333 333 331 328 330 332 332 331 332 332 331 335 333 329 331 330 332 333 332 332 330 330 327 326 327 324 325 327 325 325 327 326 326 326 326 328 329 330 330 328 328 327 327 328 327 328 328 323 313 306 306 306 306 306 307 307 307 307 307 307 306 306 306 306 305
313 311 309 308 308 308 308 308 309 311 315 319 320 322 329 336 339 338 335 334 333 333 332 330 330 330 330 331 332 333 333 337 333 329 333 330 330 335 334 333 333 331 329 328 330 328 328 330 328 327 327 327 327 326 325 326 329 330 330 329 328 327 328 329 329 327 327 326 319 309 308 307 306 307 306 307 307 306 307 307 307 306 306 306 306
312 311 310 309 308 308 308 308 308 308 311 316 318 317 322 329 335 338 336 335 334 333 332 330 330 329 329 329 331 335 335 337 334 329 334 332 330 335 335 334 333 332 330 330 331 331 331 331 330 329 328 327 327 327 326 326 328 329 330 329 329 328 328 328 329 327 327 327 324 313 307 308 307 307 308 307 307 307 307 307 307 307 306 306 306
310 310 310 309 309 308 308 307 308 308 309 311 315 316 317 320 326 332 334 336 336 335 334 331 330 330 329 328 329 333 334 336 335 330 332 333 331 333 335 334 332 333 332 330 331 332 331 331 330 330 329 327 327 327 327 326 327 328 329 329 329 329 328 328 328 327 327 328 327 320 311 309 308 307 309 308 307 306 306 307 307 307 307 306 306
309 310 310 310 309 308 307 307 307 308 309 310 312 314 316 317 319 322 326 330 333 334 336 333 331 330 330 330 329 330 331 332 334 333 331 332 331 330 333 332 332 333 332 331 330 330 330 330 330 330 329 328 327 327 327 326 326 327 328 328 329 329 328 328 328 326 327 327 328 325 316 309 309 308 308 309 308 306 307 307 307 307 306 306 306
310 311 311 309 308 307 306 306 306 307 309 310 310 311 313 315 316 317 318 320 323 326 328 330 331 333 332 331 331 330 330 329 332 334 333 333 332 330 329 331 333 332 331 332 330 327 329 330 329 329 329 328 328 327 326 327 325 325 328 328 328 329 329 329 328 327 327 327 327 327 322 313 309 308 308 308 308 306 307 307 307 307 306 306 306
312 312 311 308 307 306 306 306 305 306 307 308 309 309 310 311 313 314 314 315 316 317 319 321 324 329 332 333 332 331 331 330 331 333 333 332 331 331 329 330 332 332 331 332 329 325 327 328 328 328 327 327 327 326 325 325 325 324 326 328 328 329 329 329 329 328 327 327 327 327 326 320 313 309 307 308 308 306 306 308 307 306 307 306 306
314 310 308 308 307 307 306 306 306 305 305 306 306 307 308 308 309 310 311 311 312 313 313 314 316 320 326 330 332 331 331 331 330 332 333 331 330 330 329 328 331 332 332 330 328 325 325 325 324 324 323 322 322 321 321 323 323 324 325 327 328 328 329 329 328 328 327 327 327 327 327 325 321 315 309 305 308 307 306 307 307 306 307 306 306
315 309 308 308 307 306 306 305 305 305 305 305 305 306 305 306 306 307 308 309 310 310 310 311 312 312 316 321 325 329 331 331 331 331 332 331 330 330 330 329 330 332 332 328 326 324 324 323 321 322 321 319 321 319 317 320 322 322 324 326 328 329 329 329 328 328 328 327 326 326 326 326 326 324 317 310 307 307 308 308 308 307 306 306 306
314 311 310 309 306 305 305 306 306 306 306 306 306 306 306 305 306 306 306 307 308 309 310 310 310 310 311 312 316 321 325 330 331 331 331 330 331 330 329 328 329 332 332 328 326 325 324 322 321 323 325 323 323 321 318 320 321 321 323 325 327 328 328 328 328 328 328 327 327 326 326 325 326 326 325 321 314 307 307 309 310 309 307 306 306
313 311 311 308 306 305 306 307 307 307 306 306 306 305 306 305 305 306 306 306 306 307 309 310 311 311 310 310 311 314 318 326 331 332 331 329 330 329 327 325 327 332 333 330 329 328 328 326 322 324 327 327 326 326 322 320 322 321 322 325 327 328 328 328 328 328 327 327 327 326 326 325 325 325 325 325 323 315 309 308 309 308 307 307 306
313 312 312 308 305 306 307 308 307 307 307 307 306 306 306 305 305 305 305 306 306 307 307 309 311 312 311 311 310 311 317 323 327 330 332 330 330 330 329 328 326 330 332 332 331 331 332 331 328 324 326 329 329 329 326 323 322 321 321 325 326 327 327 327 328 328 327 326 326 326 325 325 324 323 322 323 325 323 315 310 309 307 308 307 307
315 313 312 310 306 306 307 307 307 308 308 308 307 307 306 306 306 305 305 305 306 307 307 308 309 311 312 311 310 311 314 318 321 327 331 331 330 331 331 330 328 328 328 331 332 331 331 332 332 329 327 330 330 329 328 325 322 321 322 325 326 326 327 327 328 327 326 326 326 326 325 325 324 322 322 322 324 324 321 316 311 307 308 307 307
316 314 313 312 309 307 307 307 309 309 309 309 309 308 306 306 306 305 305 304 304 305 307 308 308 309 310 311 311 311 312 315 321 326 329 330 330 330 331 330 330 331 328 328 330 330 330 330 331 331 330 332 331 329 328 325 322 321 323 326 326 326 327 327 327 327 326 326 326 326 325 325 324 322 320 321 324 325 323 322 318 311 310 308 306
316 315 314 314 312 310 309 309 310 310 310 310 310 309 307 306 306 306 305 304 304 304 306 308 309 310 310 310 310 310 311 313 317 322 326 329 330 331 331 329 330 332 332 330 330 330 331 331 330 331 331 332 332 330 328 326 323 322 324 326 326 326 327 327 327 326 326 325 325 325 325 324 324 323 319 318 323 325 323 323 323 319 318 315 309
316 316 315 315 313 312 312 311 311 311 311 311 311 309 307 306 306 306 305 304 304 304 305 306 309 310 310 310 310 310 311 311 312 315 318 323 326 328 330 330 331 331 332 332 332 332 332 332 331 331 331 332 332 330 328 326 324 324 326 326 326 326 326 327 326 326 324 325 325 324 324 324 325 324 322 319 319 322 324 323 321 321 322 321 317
316 316 316 315 314 313 313 313 312 312 312 311 311 309 307 306 306 306 306 304 303 304 304 305 307 310 311 311 311 311 311 312 312 312 313 314 317 319 321 325 329 330 331 331 332 334 334 333 333 332 331 332 332 330 328 326 325 326 326 326 326 326 326 326 326 325 324 325 325 324 324 325 325 324 325 322 318 318 322 322 320 319 321 324 322
316 316 316 316 315 314 313 313 313 312 312 312 310 308 306 306 306 306 305 304 303 303 303 304 305 308 312 313 312 311 311 311 312 312 313 313 313 313 313 315 318 322 327 331 333 335 334 334 333 332 331 331 331 330 329 327 325 325 326 326 326 326 326 326 325 325 325 325 325 325 325 325 325 324 324 323 320 319 321 322 320 316 317 321 322
316 316 316 316 315 314 314 313 313 312 312 312 311 308 307 306 306 306 306 305 303 302 304 308 309 310 313 315 314 313 311 311 312 312 312 312 312 313 312 313 313 314 317 322 328 332 332 332 332 332 332 331 331 330 329 327 326 325 326 327 326 326 326 326 326 325 324 325 325 325 325 325 325 324 322 323 323 323 322 319 317 314 311 313 316
316 316 316 316 316 315 314 314 313 312 312 312 310 308 307 306 306 306 306 305 304 304 305 309 311 313 314 314 315 315 314 313 312 311 312 312 312 312 312 313 314 315 314 313 317 322 327 328 326 326 331 332 330 330 329 327 326 325 326 327 326 326 326 325 327 327 325 325 325 325 325 325 325 323 322 323 324 323 320 316 313 311 308 307 308
316 316 316 316 316 315 314 314 313 313 312 312 310 308 307 306 305 305 305 305 305 305 305 304 306 311 314 314 315 315 315 314 313 311 311 312 312 312 312 313 313 316 317 314 313 313 317 320 318 322 331 331 328 328 328 328 328 325 324 326 326 326 327 326 327 329 327 326 326 326 326 326 325 323 322 323 323 321 318 314 311 308 305 305 305
315 315 315 315 316 315 314 314 313 313 313 312 309 308 307 306 306 306 305 305 305 304 305 304 304 306 311 314 314 314 314 314 314 314 313 313 313 311 312 312 312 314 315 317 318 312 312 318 322 327 332 331 328 328 328 328 328 327 324 324 326 327 328 328 328 328 328 327 327 327 327 326 325 323 322 324 324 321 318 315 313 309 304 304 305
315 315 315 315 315 315 314 314 314 313 313 312 310 308 307 306 305 306 305 305 305 304 304 305 305 305 306 310 312 313 314 314 314 314 314 314 315 314 313 312 312 313 313 316 320 316 313 321 328 331 332 331 328 327 328 328 329 327 325 324 326 327 328 328 328 327 327 327 327 327 326 327 325 323 323 324 324 323 321 317 315 314 310 306 306
314 314 314 315 315 315 314 314 313 313 313 312 311 308 307 306 305 305 305 305 305 305 304 304 305 306 306 306 308 309 311 313 314 314 313 314 315 315 315 314 313 312 312 313 317 318 318 320 325 328 330 330 329 328 328 328 329 328 326 325 326 327 327 327 327 327 327 325 326 327 327 326 325 324 324 325 324 324 324 320 318 319 317 312 308
314 314 314 314 314 314 314 314 314 314 313 312 311 308 306 306 305 305 305 305 305 305 304 303 304 305 305 306 307 308 309 310 311 313 313 313 314 314 315 315 314 313 313 312 313 317 321 322 322 324 326 325 327 329 328 325 326 328 327 326 326 328 328 327 327 327 327 326 326 325 326 326 324 325 325 325 325 325 325 323 321 322 322 319 313
314 314 314 314 314 314 313 314 313 313 313 313 311 308 306 305 305 305 305 305 305 305 304 304 303 303 303 304 306 307 308 309 310 311 312 312 313 314 314 315 315 314 313 313 312 314 319 323 323 323 324 323 324 326 325 323 324 325 327 326 326 327 328 329 328 328 327 327 326 326 325 325 325 326 326 325 325 325 325 325 324 323 325 323 321
Wind_Speed
2 1 3 8 10 9 9 9 7 5 5 5 5 5 7 10 11 11 12 12 12 12 12 15 17 16 16 15 13 13 12 11 10 9 9 9 9 9 11 11 12 14 15 16 15 15 14 13 10 9 6 6 8 8 10 11 9 9 10 13 15 16 16 17 17 18 18 18 19 20 21 20 20 20 19 19 17 14 12 12 13 13 13 14 13
3 2 1 7 10 11 10 10 8 6 4 5 4 5 7 10 12 12 13 12 11 12 13 16 18 16 15 14 13 12 11 11 10 8 8 8 9 9 11 11 11 13 13 14 14 14 14 12 10 8 6 6 7 7 8 9 8 8 10 13 13 14 16 17 17 18 19 19 20 20 20 20 19 20 19 18 16 14 12 13 13 13 12 12 12
1 1 1 5 9 12 11 9 9 8 5 4 4 4 7 10 12 13 13 13 12 12 14 17 18 16 14 13 12 11 11 11 10 8 7 7 9 10 11 10 10 12 11 12 13 13 13 12 9 7 5 4 5 6 6 8 8 7 9 11 10 12 16 18 16 17 19 20 20 20 20 19 19 19 18 17 15 13 12 12 12 12 11 11 11
3 3 1 1 6 11 12 10 9 9 7 5 4 4 7 10 11 13 14 14 12 11 14 17 17 16 13 12 11 10 11 11 10 9 9 9 9 9 10 10 10 11 11 12 12 12 11 10 8 6 4 2 4 5 5 6 7 6 8 9 9 11 15 17 15 14 18 20 19 18 16 15 16 17 18 17 15 14 12 11 11 11 11 11 12
4 3 2 1 4 10 12 12 11 9 9 6 5 5 6 10 11 12 14 14 12 10 12 14 15 15 12 11 10 9 10 10 10 10 11 11 10 9 9 9 9 10 11 11 12 12 9 8 7 5 4 3 4 4 6 7 7 7 7 8 9 12 14 15 13 12 16 21 20 14 12 11 13 16 18 16 15 13 12 11 11 10 10 11 11
2 2 1 2 2 9 14 14 13 11 10 8 6 6 6 9 11 11 13 13 13 11 12 13 15 15 12 11 9 8 9 9 9 10 11 11 11 10 9 9 8 9 10 11 10 10 7 6 5 4 4 4 4 7 9 8 8 7 7 8 9 11 13 13 11 11 15 19 18 12 9 10 10 14 17 16 14 13 12 12 11 10 10 10 11
2 1 1 1 3 10 16 15 15 13 11 9 8 7 6 8 10 11 12 13 13 12 12 14 15 14 12 11 9 8 8 9 8 9 11 11 12 11 10 9 8 8 9 10 9 7 5 5 3 2 4 3 6 11 11 9 8 8 8 8 9 10 12 12 10 10 13 13 12 12 10 9 9 12 16 16 14 13 12 11 10 10 10 10 10
2 2 1 2 3 10 16 15 15 14 12 10 9 7 7 7 9 11 12 13 13 13 12 14 13 12 12 11 10 9 8 9 9 10 12 12 12 11 10 8 7 7 8 8 7 5 4 3 2 3 4 5 9 13 13 10 9 8 8 9 9 10 11 11 9 9 11 10 10 12 9 8 9 12 15 15 14 13 12 11 10 10 9 9 10
4 4 5 4 4 10 15 15 14 14 12 11 10 8 7 7 8 10 11 13 14 14 14 14 12 11 12 11 10 9 9 10 10 12 13 12 11 10 9 7 6 6 6 5 5 4 4 3 3 4 5 8 12 14 13 11 10 9 9 9 9 10 10 10 9 9 10 9 11 12 10 8 7 11 14 14 13 12 12 11 10 9 9 9 10
5 5 6 5 5 10 14 15 15 14 13 12 11 9 8 7 7 8 9 11 12 13 14 13 12 12 12 10 10 9 10 11 11 12 14 12 9 8 8 7 5 5 4 4 4 4 3 3 4 5 6 10 14 15 14 12 10 10 10 9 10 10 10 10 9 8 9 8 10 13 14 11 8 11 13 13 12 11 11 11 10 9 9 9 10
6 6 6 5 5 8 13 15 15 16 14 12 12 10 8 7 7 7 7 9 11 12 13 13 12 12 12 11 10 10 10 11 11 12 13 10 8 8 7 6 5 4 4 4 4 4 3 3 5 6 5 10 15 15 13 11 10 10 10 9 10 10 9 10 8 7 9 7 8 13 16 12 10 12 12 11 10 9 10 9 9 8 8 9 9
6 6 6 5 4 5 11 14 15 16 14 13 13 12 10 8 7 6 6 7 8 10 12 12 12 13 13 12 11 11 11 11 11 12 11 9 8 8 7 5 4 4 4 4 5 4 4 4 5 6 5 10 15 16 13 11 10 10 10 10 11 10 10 10 8 7 8 6 8 14 13 8 9 11 11 10 9 8 9 8 9 8 8 9 9
8 7 5 6 4 5 8 12 13 13 13 14 13 11 11 9 7 6 5 6 6 9 11 12 13 13 13 12 12 11 12 12 12 12 9 9 9 8 6 5 4 5 5 5 5 5 5 5 6 6 6 12 16 15 13 11 10 9 10 10 11 11 11 11 9 7 8 8 8 11 10 8 9 10 10 10 9 7 7 7 8 8 8 9 8
8 8 7 8 5 4 8 11 9 8 12 14 13 12 12 10 10 7 5 5 4 7 10 12 13 12 12 12 12 11 13 13 11 11 10 9 9 8 6 5 5 5 5 5 6 6 6 7 7 6 7 14 16 14 12 11 10 10 10 11 11 12 12 11 9 8 8 8 9 9 8 9 9 9 10 9 8 7 7 6 7 8 8 8 8
9 9 8 8 7 5 3 7 8 8 10 12 12 13 11 9 9 7 7 6 3 7 10 12 13 12 12 12 12 12 13 12 10 11 10 9 9 8 7 6 6 5 6 6 6 7 7 7 8 6 8 13 15 13 11 9 10 10 10 11 11 12 13 10 7 8 8 7 9 8 6 8 10 9 10 9 8 7 6 7 7 7 7 7 8
10 8 8 7 7 8 6 1 6 9 9 10 10 10 8 7 8 7 7 7 4 6 10 11 13 12 13 13 13 13 12 12 11 11 10 10 10 9 7 7 6 6 6 7 7 8 8 9 8 8 9 12 13 13 10 9 9 10 10 11 12 12 15 12 7 9 8 6 7 6 4 6 8 8 9 8 7 7 6 7 7 7 7 7 8
10 8 7 7 7 8 9 8 5 6 8 9 9 8 8 7 7 6 6 8 5 6 10 11 12 13 14 14 13 12 11 12 11 11 11 11 11 9 8 8 7 7 7 6 7 8 9 10 10 9 10 11 11 11 11 9 9 10 10 11 12 12 15 14 9 9 10 9 8 6 4 6 7 7 8 7 6 7 7 7 7 7 7 7 8
9 9 7 7 6 6 7 8 7 5 5 7 7 7 8 8 8 7 7 9 7 6 9 10 13 13 13 13 12 12 12 13 12 12 13 13 12 9 9 9 7 7 7 6 6 6 7 9 10 10 10 10 9 9 10 9 9 10 9 12 13 12 15 14 9 9 12 11 8 6 6 8 8 7 7 6 6 7 7 8 8 8 7 7 8
9 8 7 7 7 6 6 6 5 4 3 3 6 7 8 10 9 9 9 10 8 7 8 11 13 14 12 13 12 12 13 13 12 12 13 13 13 10 10 10 8 8 8 7 6 6 7 8 10 11 11 10 8 9 8 7 7 9 9 11 12 12 13 10 6 7 9 9 8 6 8 10 8 6 7 6 6 8 8 8 8 8 7 7 7
9 8 7 7 7 7 5 5 4 2 3 3 4 7 9 11 11 11 11 11 10 7 8 12 14 14 13 12 12 12 12 11 11 11 11 11 11 11 11 11 9 9 9 8 7 6 8 8 8 10 10 9 8 8 7 5 4 7 8 9 11 12 11 8 6 7 6 8 9 8 9 10 9 7 7 7 6 8 9 8 8 8 8 8 7
8 8 8 7 6 7 6 4 4 3 2 3 3 5 10 12 13 14 12 11 11 8 8 12 13 12 12 11 11 11 11 10 11 11 12 12 11 12 12 12 11 10 10 9 8 6 8 8 8 10 10 9 9 7 5 4 3 4 6 8 10 9 8 8 8 7 5 8 8 10 12 10 10 9 9 8 7 8 9 9 8 8 9 8 8
7 8 9 8 7 6 6 4 2 2 3 3 3 2 8 13 14 15 12 12 12 9 9 12 12 10 10 11 10 11 11 11 13 12 13 14 14 13 12 13 13 12 11 10 9 7 7 8 8 9 10 9 8 6 4 3 3 4 6 7 8 6 7 9 8 6 6 7 8 11 13 12 12 11 11 10 8 8 9 9 8 7 8 8 7
6 8 9 9 9 7 5 4 2 1 2 3 4 2 7 13 14 14 14 14 13 10 10 12 12 10 10 10 10 10 10 11 12 11 11 13 15 15 13 14 14 13 12 11 9 8 7 8 7 7 8 7 6 6 5 3 3 4 7 7 7 6 8 8 7 6 7 7 9 12 13 13 14 13 12 10 9 10 9 9 8 7 7 7 7
6 6 8 8 7 8 7 5 4 2 2 1 2 2 6 12 13 14 15 15 14 12 12 13 12 12 12 11 10 10 11 11 11 10 10 11 15 17 15 17 16 14 13 12 11 9 8 8 8 6 6 7 7 6 6 6 5 4 7 7 7 8 8 7 6 6 7 8 11 12 13 13 13 14 13 12 11 10 10 9 8 7 7 7 7
5 4 6 6 6 7 7 7 5 4 3 2 1 1 2 10 13 14 15 14 14 13 13 15 14 13 14 12 10 11 12 12 11 11 11 10 14 18 20 19 18 16 14 12 12 11 10 10 9 9 8 8 8 8 8 7 7 6 7 7 8 9 8 7 7 6 7 9 12 13 13 13 13 13 13 13 12 11 11 10 9 8 8 8 7
5 3 4 5 5 5 6 7 6 5 4 4 1 1 0 7 13 14 14 14 14 14 15 16 16 16 15 12 11 13 13 11 12 13 12 11 12 17 21 19 18 17 14 13 13 12 12 11 11 11 10 10 10 9 9 8 8 8 8 8 8 9 8 7 8 8 7 9 12 13 13 13 14 14 14 14 13 12 13 11 10 10 9 8 7
5 5 4 4 4 4 5 5 6 5 3 3 2 1 1 4 11 14 15 15 15 15 16 17 17 17 16 15 14 13 13 12 13 14 12 12 13 16 19 18 18 16 15 16 14 12 13 11 11 12 11 10 10 11 11 9 9 9 8 8 8 9 9 8 8 8 7 7 10 13 13 13 14 15 15 15 14 14 15 13 12 11 9 8 7
6 7 7 6 6 5 5 4 4 4 2 0 1 1 1 1 5 10 13 15 16 15 15 17 17 17 17 17 15 13 13 13 15 15 13 13 14 17 18 18 19 16 15 16 14 12 13 11 10 11 10 10 11 11 11 11 10 10 10 10 9 10 10 9 8 8 7 6 9 12 13 13 13 14 16 16 16 16 16 15 13 12 10 10 9
5 5 6 6 6 6 5 5 4 3 2 1 1 2 3 3 2 3 7 10 14 15 15 16 16 17 18 18 17 16 15 15 16 17 15 15 15 18 19 20 19 16 15 15 14 14 12 12 10 9 10 10 10 10 11 12 12 11 11 11 10 11 11 10 9 9 8 6 7 11 12 11 13 14 16 17 17 17 17 16 14 13 12 11 10
4 3 5 6 6 7 6 6 5 3 2 1 2 3 4 4 3 3 2 4 8 12 13 15 17 18 19 19 20 18 18 18 17 16 17 16 16 18 20 20 19 18 17 14 15 16 13 11 10 9 10 11 10 10 10 12 13 13 12 12 11 11 11 10 10 9 8 8 7 10 12 10 11 12 15 17 18 18 17 16 15 14 13 13 11
5 4 5 6 6 7 7 6 5 4 4 3 1 2 4 5 6 5 4 4 5 6 7 10 14 19 21 21 21 20 19 21 19 16 17 16 16 18 19 19 19 19 17 13 15 16 13 12 11 11 12 12 12 12 11 11 13 13 13 13 12 12 12 11 11 10 9 9 7 9 11 10 10 11 14 18 19 18 17 16 16 15 15 14 12
7 6 5 6 8 9 8 7 6 5 5 4 2 0 2 4 6 7 8 7 7 7 8 8 8 13 19 20 20 21 21 22 21 17 17 18 18 20 20 19 19 19 16 14 14 15 15 15 13 13 13 13 14 15 14 12 13 13 14 14 14 13 13 12 12 11 10 10 9 8 9 9 10 11 13 17 19 19 19 17 16 17 16 15 13
7 7 7 7 9 10 10 10 9 8 7 5 4 3 2 2 4 6 8 9 9 10 10 10 9 9 14 18 19 20 21 21 22 20 18 18 20 21 22 21 19 19 18 16 15 15 16 17 15 14 15 16 17 19 17 14 14 14 14 14 15 14 13 13 13 12 12 11 10 9 9 9 9 10 13 17 20 20 20 19 18 18 17 16 14
7 8 9 8 8 10 12 12 12 11 11 10 9 8 6 5 5 5 7 8 9 10 11 11 11 10 12 16 17 19 21 21 22 22 21 20 19 21 21 20 19 19 19 18 17 18 18 17 17 16 17 18 18 20 19 16 15 14 15 15 16 16 15 14 14 13 13 12 11 10 9 9 9 9 11 15 19 21 21 20 19 19 19 18 16
8 7 8 7 9 11 13 14 15 15 15 15 15 13 12 10 9 8 7 7 9 10 11 10 10 11 12 15 15 16 19 22 24 23 23 23 22 23 22 21 21 19 20 21 18 19 21 20 19 17 17 18 16 18 19 16 15 14 15 16 16 16 16 15 15 14 14 13 12 12 11 10 10 9 10 11 16 21 23 22 21 20 20 19 18
9 8 7 7 8 11 13 14 15 16 16 17 17 16 15 14 12 11 9 8 8 10 11 10 9 9 10 12 14 15 16 20 25 25 23 24 25 26 25 24 24 20 20 22 20 18 19 21 21 19 18 17 14 15 17 16 15 15 15 16 16 16 16 16 16 15 14 14 13 13 12 11 11 11 11 11 12 17 22 24 23 22 22 21 20
9 8 7 6 7 9 12 13 13 14 15 16 17 17 17 16 15 14 12 10 8 9 10 10 9 9 9 9 11 15 16 18 22 26 26 25 26 27 26 26 27 25 23 21 21 20 18 18 21 23 22 19 13 12 14 14 15 15 15 17 17 17 17 16 17 15 15 15 15 14 14 13 13 13 13 12 11 13 19 23 25 24 23 23 22
10 8 7 6 5 6 7 8 8 9 11 12 14 16 16 17 18 17 15 12 10 9 9 10 10 9 9 9 9 11 16 18 19 23 27 28 28 27 27 29 29 30 30 26 24 26 25 21 20 22 23 21 15 12 13 13 13 13 15 17 17 17 17 17 17 16 16 16 15 15 14 14 15 14 13 12 12 13 16 21 24 26 25 25 24
11 10 8 7 6 4 2 1 3 4 6 8 11 14 15 17 18 20 20 16 12 10 10 10 10 10 10 10 10 10 13 17 19 21 24 28 31 30 27 30 30 30 31 31 30 30 31 29 23 22 23 21 16 13 13 13 12 13 14 16 17 17 17 17 18 17 17 17 16 16 15 15 16 16 15 14 13 14 16 16 19 24 25 25 25
13 11 10 8 7 6 5 4 3 3 5 6 8 11 13 14 16 20 22 20 15 11 10 10 10 10 10 10 11 11 12 15 18 21 22 25 29 31 32 34 33 30 29 31 32 32 33 32 30 27 26 24 18 15 14 14 13 13 14 14 15 17 17 18 19 18 17 18 18 17 16 16 16 17 18 16 15 15 17 17 16 17 19 22 25
15 13 12 10 8 7 7 6 5 5 5 6 7 8 10 13 16 18 21 21 18 12 9 10 10 9 9 10 10 12 13 14 16 19 21 23 25 28 33 36 35 34 33 32 32 32 33 33 33 32 31 28 20 16 16 15 13 13 14 14 15 15 17 19 18 18 18 19 19 18 17 17 16 16 18 19 18 17 18 19 19 18 16 17 21
17 15 13 11 10 9 9 8 6 5 5 5 6 8 10 13 15 18 21 22 18 13 10 9 10 10 10 10 11 11 12 14 15 17 19 21 22 24 27 30 30 32 35 36 34 32 33 35 35 33 32 32 24 18 18 17 16 16 16 14 15 15 16 19 19 19 21 21 20 19 18 18 17 17 17 19 21 20 19 20 21 21 19 16 16
19 17 15 13 11 11 10 9 8 6 6 5 5 7 10 12 14 17 20 21 18 13 10 10 10 10 8 8 10 11 13 14 15 17 17 19 20 21 22 24 26 28 33 36 35 32 31 31 33 32 31 34 31 23 20 20 18 16 16 15 15 16 17 19 21 22 23 22 21 20 19 19 18 18 17 19 20 20 20 20 22 24 24 22 19
21 18 16 15 13 13 12 10 9 8 7 6 5 7 10 13 15 18 20 22 21 14 9 8 8 7 6 5 6 8 11 13 14 16 17 19 20 20 20 21 22 25 29 33 34 33 31 27 27 29 32 36 36 28 23 24 22 18 17 16 15 16 17 19 22 24 24 24 23 22 20 19 19 18 18 18 18 19 21 22 23 24 28 28 26
21 19 17 16 15 14 13 12 11 10 9 7 6 7 10 13 16 19 20 23 22 16 9 7 7 6 5 5 6 6 7 10 13 14 15 17 19 20 20 20 20 20 22 28 31 32 34 33 30 30 32 37 37 29 23 25 27 23 20 17 15 16 16 16 17 19 22 24 24 23 22 20 20 19 19 19 18 19 23 25 24 26 29 31 31
20 19 17 16 16 15 14 13 12 12 10 8 6 7 8 10 13 15 17 20 19 16 12 10 8 7 6 5 6 6 7 8 11 13 14 16 17 19 20 21 20 18 19 22 25 27 31 35 35 32 32 36 36 30 25 27 28 26 24 21 17 14 12 13 14 14 16 19 21 23 23 22 22 20 19 19 18 19 22 23 25 28 29 30 31
20 18 17 16 16 17 15 14 14 13 12 9 8 7 8 9 11 12 14 17 18 17 15 13 10 8 7 7 6 6 6 7 9 10 12 13 14 17 18 20 21 20 20 19 20 25 27 28 30 31 31 35 38 35 30 28 27 28 28 26 22 17 13 12 14 13 13 16 19 21 23 22 23 22 20 19 18 17 20 21 22 25 27 28 28
19 17 16 17 17 18 16 15 16 15 14 12 10 9 8 8 9 11 12 14 16 17 17 15 13 10 8 8 8 7 7 7 7 9 10 11 12 13 15 18 20 21 22 20 18 22 26 25 27 31 33 34 38 39 35 30 27 28 29 28 26 23 19 16 15 14 14 15 16 19 21 22 22 22 20 20 18 17 18 19 19 20 22 24 24
17 16 16 17 17 18 18 18 18 17 16 14 11 10 9 8 8 9 10 11 13 15 16 16 15 13 10 9 9 10 10 8 7 8 9 9 10 11 12 15 18 20 23 24 22 21 23 25 27 30 32 35 36 38 38 34 29 28 29 29 28 26 25 22 19 18 18 17 17 17 19 20 21 22 22 21 19 18 18 18 18 16 17 20 21
17 16 17 17 18 19 19 19 19 19 18 15 13 12 11 9 7 8 8 9 10 12 14 15 15 14 13 11 10 10 10 10 10 9 9 9 10 11 11 12 15 19 22 25 26 25 24 24 27 28 30 33 36 37 39 38 34 32 31 30 30 28 27 26 25 22 22 21 19 17 17 20 21 22 22 23 21 20 18 17 17 17 16 18 20
17 17 17 18 18 19 20 20 21 21 19 17 15 13 12 10 8 8 8 8 8 9 11 13 15 15 15 15 13 11 10 11 11 11 10 10 11 11 11 12 13 15 20 25 28 29 27 25 25 29 31 32 36 38 40 42 41 40 39 35 34 33 29 28 29 26 24 23 21 18 17 18 20 19 21 23 22 20 19 17 18 18 17 18 19
Wind_Direction
28 22 168 177 169 171 168 150 145 129 116 96 83 99 115 122 133 145 154 166 177 177 161 150 150 150 152 148 139 132 122 119 114 111 121 131 129 126 137 139 138 138 139 139 143 149 142 136 134 116 93 82 92 102 104 102 105 107 119 138 141 141 144 149 152 148 143 133 119 111 113 112 108 107 105 104 103 103 106 105 100 95 92 93 96
26 6 129 192 180 175 177 164 151 143 135 110 94 101 119 127 133 141 150 162 173 177 163 154 152 154 158 152 146 138 128 124 116 109 112 128 132 126 137 137 138 141 141 139 145 150 141 137 135 120 102 80 90 103 102 104 112 111 126 140 139 141 148 153 153 146 140 128 117 115 115 112 109 108 106 105 105 106 106 101 96 94 94 94 94
12 333 109 206 194 181 179 180 163 150 149 122 107 104 123 131 137 140 145 153 163 174 166 158 155 158 162 153 150 141 134 128 121 115 105 122 132 131 138 134 141 147 143 139 144 149 140 139 145 134 113 77 85 102 108 115 120 118 130 141 142 147 155 156 152 142 133 121 116 115 113 111 108 108 108 107 106 104 100 97 96 96 93 91 89
314 305 339 220 204 192 181 186 180 158 149 137 119 114 128 132 139 143 143 148 159 174 170 162 156 158 162 154 150 142 139 136 133 132 127 133 129 128 138 139 149 155 149 143 143 147 144 142 149 149 134 100 94 105 127 132 131 129 132 141 146 153 159 158 151 140 128 115 106 102 104 106 107 110 110 109 108 104 101 99 96 91 87 88 89
296 300 330 318 206 199 189 184 184 168 150 144 132 127 131 134 139 144 144 147 156 172 173 164 155 156 157 151 150 146 146 146 146 145 145 146 135 131 139 148 157 164 159 148 145 149 149 143 145 151 144 130 113 126 150 153 147 144 139 137 146 156 159 157 149 137 125 108 95 90 99 103 106 111 112 112 112 109 105 99 93 87 84 90 93
302 340 276 240 201 198 198 186 176 166 152 147 135 132 134 140 142 143 145 147 154 166 174 164 155 157 155 152 156 158 158 157 155 153 152 147 143 146 148 153 158 165 165 155 151 150 149 145 146 149 138 124 136 154 161 163 155 156 152 137 148 157 158 156 147 136 123 103 95 100 106 104 106 112 115 116 114 111 107 100 94 89 88 91 91
18 36 220 210 180 195 197 184 170 159 151 149 137 133 137 146 146 144 147 150 153 160 171 164 158 163 163 163 170 174 170 165 166 163 159 152 149 153 153 153 154 159 163 157 153 152 149 152 164 173 150 140 156 159 163 169 161 164 163 147 154 159 162 160 150 144 127 103 105 113 107 108 109 115 119 119 117 113 108 102 96 94 92 91 90
63 115 104 79 169 187 189 181 167 158 157 151 141 140 137 148 151 147 149 153 155 156 163 163 164 174 172 171 178 178 173 171 175 172 165 159 154 153 155 155 159 163 162 160 162 162 157 167 195 190 172 163 161 161 162 170 169 173 176 159 161 166 169 165 159 153 126 108 117 114 110 120 119 122 122 120 119 115 110 103 100 97 91 91 93
81 112 92 87 159 174 181 182 169 161 163 152 144 147 137 143 153 153 153 157 161 162 165 169 177 184 179 179 182 179 178 179 178 176 169 163 158 158 161 160 167 170 167 166 171 166 166 184 199 178 172 170 165 165 160 165 172 176 187 168 165 174 172 171 171 153 121 116 126 118 115 113 116 125 123 120 119 119 115 108 104 95 90 94 93
86 89 85 99 157 170 180 181 172 164 162 155 147 146 138 141 149 157 160 164 170 172 177 180 187 188 184 187 190 191 189 184 183 180 170 163 163 165 166 166 169 170 165 160 167 171 181 196 201 177 165 174 169 168 163 165 173 176 189 175 169 176 175 177 173 152 128 122 130 132 129 123 131 129 121 118 116 118 113 108 105 95 94 94 91
78 79 74 89 134 173 186 182 177 169 164 160 151 143 142 147 148 157 164 173 181 182 186 188 191 189 187 196 202 202 194 187 187 181 168 163 169 171 170 167 169 170 163 157 174 187 194 196 204 187 169 178 174 174 171 170 177 180 189 180 171 174 182 174 158 156 136 127 142 135 126 125 134 125 116 114 110 111 107 106 105 98 96 92 90
53 69 64 70 102 176 192 194 190 171 164 165 157 151 151 159 159 161 168 179 189 190 193 190 189 190 191 199 205 204 193 187 186 182 171 168 174 173 172 174 176 170 167 169 180 188 184 184 191 189 184 177 175 179 176 175 182 185 192 184 172 172 185 171 152 158 138 139 144 119 109 116 130 121 115 112 107 106 104 106 104 99 96 91 91
44 53 40 46 90 174 194 207 198 168 167 169 163 162 153 159 168 168 177 183 191 195 195 190 189 192 193 194 197 202 191 185 183 185 180 174 176 177 182 190 186 168 168 173 177 183 177 175 174 177 178 172 174 178 175 177 184 190 198 189 175 171 182 175 154 151 150 157 135 114 118 131 133 124 119 113 109 108 105 107 107 101 99 95 92
42 47 37 37 55 152 196 212 195 169 175 168 167 173 159 159 172 174 183 187 194 200 196 188 190 192 192 189 188 189 184 182 182 189 189 180 180 184 193 192 178 164 166 168 173 181 175 175 171 164 168 171 174 175 175 178 186 197 202 195 180 170 175 175 158 153 171 168 140 134 141 141 140 131 125 117 112 113 111 110 110 107 104 102 96
41 52 53 44 38 65 186 215 190 187 187 172 173 178 171 172 179 174 171 187 199 199 197 186 189 192 188 187 184 184 185 192 192 191 194 188 184 187 193 182 166 160 164 168 175 180 177 182 178 169 167 174 180 180 181 182 190 198 201 199 184 170 164 160 162 167 178 172 148 144 145 154 153 138 129 122 117 120 118 116 117 114 109 105 100
38 49 54 51 35 46 50 55 176 193 196 186 189 187 190 198 196 185 168 185 198 190 196 189 188 190 189 190 190 189 194 203 196 192 198 195 188 185 188 174 159 161 168 171 179 183 183 191 194 184 169 173 187 192 192 189 193 197 196 197 185 173 160 149 165 177 171 170 154 136 153 177 157 141 132 125 127 127 129 130 126 120 115 110 103
30 37 43 53 40 40 51 59 110 174 192 194 198 200 207 215 215 207 181 187 195 189 195 193 189 189 192 193 191 192 196 199 194 192 195 196 190 183 183 173 163 168 172 174 181 188 188 197 203 195 179 173 185 199 203 197 195 194 193 197 186 174 166 157 162 178 176 172 156 137 185 203 168 146 133 129 138 135 137 137 130 126 122 114 105
14 23 32 47 45 40 52 63 85 123 175 195 197 202 212 226 228 211 193 190 193 192 193 191 187 187 190 191 190 191 193 195 195 193 194 195 188 180 183 174 170 177 173 171 176 183 180 192 202 196 188 179 181 194 200 200 201 197 193 201 190 173 173 165 157 183 187 174 157 149 185 199 180 155 140 139 144 145 147 142 138 136 128 119 110
357 4 15 30 35 33 43 53 68 97 137 184 204 213 219 230 227 208 200 194 195 196 188 183 183 186 191 192 191 191 193 195 196 196 197 194 183 181 188 178 176 184 176 169 166 161 157 175 196 194 189 180 180 184 186 197 210 207 201 206 197 179 173 160 153 185 191 184 168 171 187 189 184 169 158 153 152 156 155 151 149 144 133 127 120
350 351 356 18 28 26 31 44 47 65 115 125 189 213 218 225 221 210 208 197 198 202 188 181 179 185 192 193 192 192 193 196 197 194 195 193 187 187 188 180 181 187 178 170 163 149 138 146 173 181 179 171 171 175 176 184 201 210 202 206 204 183 166 162 178 173 181 199 184 194 200 189 188 182 173 172 170 164 160 161 160 153 144 139 134
353 350 347 3 20 29 31 40 43 19 43 84 133 198 208 213 213 208 207 198 198 203 190 182 180 187 192 190 191 192 186 191 196 193 195 195 195 196 190 182 184 192 184 175 171 153 134 126 137 152 157 155 154 157 158 149 157 191 186 200 202 178 170 184 189 172 181 200 189 205 206 194 195 189 187 187 179 171 168 170 171 165 155 152 149
358 347 341 343 348 13 35 37 45 14 360 33 65 171 198 202 207 203 197 193 196 197 186 181 182 189 194 185 186 192 185 193 198 194 198 196 195 199 199 191 186 192 187 179 180 166 148 133 123 129 141 144 139 138 142 138 142 153 161 188 187 172 199 196 183 184 195 194 196 208 202 198 199 194 196 195 186 180 178 180 183 179 166 162 158
359 344 332 331 332 336 2 15 13 19 357 13 38 90 187 198 204 198 189 189 193 187 179 186 188 190 196 187 188 196 190 199 203 197 201 198 193 195 201 197 190 192 188 184 187 179 165 151 136 128 133 140 140 145 155 173 175 151 158 174 172 187 215 199 181 192 200 201 209 209 201 201 201 198 199 199 198 189 186 191 193 189 177 173 168
352 345 328 327 326 320 324 332 341 353 10 20 22 58 179 200 204 195 189 190 192 186 179 191 196 195 200 196 197 198 194 202 202 199 204 201 194 193 198 198 193 192 188 188 192 191 180 168 163 157 152 154 164 171 167 182 196 178 175 176 178 203 215 195 184 194 203 209 214 211 204 206 204 201 201 202 205 196 191 198 202 197 189 187 180
3 358 333 331 329 320 312 311 323 332 351 21 359 19 182 200 201 197 196 191 188 187 184 193 200 201 204 204 204 200 201 208 205 204 205 205 199 194 197 197 195 191 186 191 197 197 190 187 186 180 182 179 181 187 178 185 197 193 194 192 193 206 207 195 192 193 204 215 217 212 207 211 209 204 205 207 207 200 198 202 208 206 199 197 189
35 26 342 335 338 329 314 305 307 311 336 9 31 15 89 191 197 202 201 196 191 191 190 195 203 204 202 203 208 208 206 207 209 211 204 206 208 196 194 194 195 191 186 191 197 197 191 195 197 188 193 194 195 203 195 190 197 201 203 204 207 205 200 200 204 198 203 219 219 212 208 211 211 207 207 210 208 202 202 207 212 211 207 204 198
58 51 26 9 6 352 336 319 308 306 320 10 34 34 14 184 200 204 201 202 199 198 196 198 206 206 203 203 207 213 212 207 212 214 201 204 207 192 189 190 194 194 190 192 197 198 191 196 201 195 201 202 206 220 219 210 205 208 209 211 213 209 202 202 212 209 206 218 218 211 210 211 211 209 208 211 210 203 204 210 214 215 213 211 208
66 59 51 36 27 19 6 351 329 316 302 332 34 303 316 234 208 206 205 208 202 200 202 203 208 208 207 208 207 212 216 215 217 216 202 199 203 190 187 194 197 196 198 197 199 201 194 197 203 202 207 209 213 222 225 222 216 214 214 217 216 213 210 204 212 215 210 219 222 214 208 208 212 211 210 211 209 204 205 212 215 214 217 217 215
71 57 50 44 37 32 28 23 18 351 322 240 198 229 273 295 284 225 219 215 205 204 206 205 210 212 213 213 211 214 218 219 220 224 212 199 203 194 190 199 199 199 208 206 203 206 203 205 206 206 210 213 220 223 223 224 224 221 217 221 219 215 214 209 212 212 209 216 231 231 218 208 213 213 212 212 208 205 206 213 214 213 218 221 220
80 49 40 42 41 38 42 43 44 42 41 69 207 215 240 262 278 282 273 243 221 212 208 206 209 213 215 216 215 216 222 222 221 227 219 202 205 205 200 204 204 209 216 211 211 212 210 213 212 210 214 219 222 224 227 226 227 225 221 223 220 217 217 215 216 213 213 213 221 243 237 218 216 216 215 213 207 205 208 214 215 214 219 223 224
73 53 51 46 50 53 56 60 61 66 74 80 123 212 224 244 254 262 263 267 265 248 236 226 216 214 215 217 217 218 223 225 222 223 221 211 212 218 216 213 210 216 219 213 220 222 214 213 216 216 218 222 223 226 230 227 227 225 222 221 218 217 217 216 219 216 219 219 217 238 245 232 223 221 219 216 209 204 209 215 216 216 220 224 227
76 65 68 65 69 71 71 70 70 71 71 72 65 43 235 244 253 264 265 261 264 264 268 270 251 227 218 219 221 219 220 224 223 221 224 224 221 221 222 223 218 218 222 219 225 231 224 218 220 224 224 224 226 231 232 229 226 224 222 220 216 216 216 215 216 216 217 219 219 227 242 243 232 226 224 220 213 206 209 214 217 218 220 224 227
91 74 79 75 72 79 80 77 74 72 67 61 52 30 355 298 271 270 274 271 266 261 260 263 267 253 231 228 229 227 223 223 224 223 224 229 231 227 223 226 225 220 224 226 227 231 231 230 232 234 236 237 238 240 240 236 230 223 221 218 215 215 215 214 214 216 216 216 220 223 230 239 238 240 235 224 216 211 210 213 217 219 221 224 226
112 81 82 75 71 84 84 80 77 71 67 61 54 43 25 5 343 311 295 287 278 271 266 260 256 253 246 240 238 237 233 229 227 226 225 226 233 234 226 225 227 223 227 232 231 231 230 233 237 237 242 244 244 249 250 243 237 226 220 217 215 214 212 213 214 215 217 216 219 222 226 232 235 244 242 228 220 215 212 212 216 219 222 225 226
123 95 85 75 77 88 83 78 75 69 65 59 54 48 40 28 15 359 339 318 299 287 278 274 264 254 249 246 242 240 239 236 233 230 227 225 227 233 231 229 229 225 230 236 236 236 234 234 234 230 239 246 244 251 256 248 238 228 220 217 215 214 212 212 215 216 218 218 218 221 223 227 230 233 235 233 229 225 218 214 215 218 221 225 227
125 110 95 83 88 93 87 80 74 67 62 55 51 47 41 33 22 10 0 349 326 305 291 285 279 267 258 250 244 239 236 236 236 234 231 229 230 235 236 233 231 227 231 236 237 238 239 240 238 228 230 243 241 244 254 250 240 231 221 215 213 214 213 213 216 216 218 220 220 224 224 225 227 225 225 226 231 235 229 221 218 219 221 224 227
142 128 114 100 103 103 95 85 75 65 57 49 43 39 37 34 28 16 1 352 341 322 304 292 282 273 267 259 248 240 234 231 234 236 234 232 233 236 236 233 231 230 230 235 238 239 238 239 241 237 233 239 237 233 246 247 240 233 221 216 214 213 213 213 217 217 218 222 222 225 230 231 231 229 228 223 222 233 237 232 225 222 223 224 227
166 155 145 138 136 126 104 86 72 60 48 41 35 28 25 24 24 20 9 355 340 330 317 300 287 275 265 260 253 245 240 236 234 236 234 233 232 234 235 234 233 233 232 233 237 241 241 239 239 239 236 236 234 228 237 239 234 228 218 217 214 213 215 214 217 219 219 222 224 226 229 234 235 234 233 227 222 227 235 238 232 225 225 226 228
182 178 173 172 176 181 172 70 35 34 26 22 23 20 16 14 13 12 9 2 343 325 316 307 293 278 267 260 254 248 245 240 238 239 237 235 235 236 236 235 234 236 237 235 237 240 242 241 238 236 236 236 233 229 234 233 225 218 215 217 214 215 218 216 218 220 220 222 225 226 229 233 237 237 235 228 222 225 227 230 229 227 227 229 231
193 191 191 192 196 211 236 263 299 327 340 356 12 14 10 6 6 5 3 359 349 329 309 303 296 279 266 262 255 247 245 241 239 240 241 239 239 239 240 238 235 236 238 237 238 240 240 241 239 235 236 240 236 229 233 230 219 212 211 214 214 217 220 221 221 221 222 225 227 228 229 231 234 237 240 234 223 224 226 222 222 225 229 234 235
202 201 200 203 209 221 238 255 279 304 323 346 5 7 3 0 1 2 359 354 347 335 314 298 293 283 265 254 252 248 243 241 240 241 241 241 241 243 244 244 241 239 239 240 241 241 241 241 240 236 236 240 237 226 227 224 212 206 206 209 213 217 220 224 226 225 227 230 230 230 228 227 229 232 236 237 229 225 225 225 224 221 220 231 238
210 208 206 209 215 224 238 251 268 289 308 332 348 349 355 360 358 358 357 352 345 332 313 294 284 282 272 249 240 243 243 242 242 242 243 243 244 247 249 249 246 242 239 240 241 239 237 235 234 233 234 236 232 222 221 219 210 205 202 203 211 218 222 226 229 230 231 233 232 229 228 226 227 228 230 236 237 233 228 226 227 225 220 221 230
215 213 210 214 219 227 239 249 260 277 290 308 336 343 347 351 352 355 355 353 348 330 305 293 280 274 275 256 238 236 238 242 244 244 246 247 247 249 251 252 250 247 242 240 236 232 235 235 232 232 234 235 232 223 221 221 216 208 202 201 207 216 223 226 229 230 229 231 231 228 229 228 227 228 230 235 238 234 229 227 228 231 229 223 221
217 215 214 218 221 229 240 248 256 268 280 289 310 327 333 338 343 348 352 354 353 345 325 309 295 283 283 278 263 246 237 239 243 245 246 248 250 250 251 253 252 251 248 246 240 236 238 239 239 240 236 234 235 230 223 223 221 211 206 208 207 211 222 224 226 230 229 227 229 228 227 229 228 228 228 231 233 229 230 230 231 235 236 234 231
218 218 219 221 223 231 240 248 256 263 270 277 291 312 329 342 349 353 356 358 358 357 351 326 307 305 303 290 288 280 258 247 244 244 246 247 249 251 251 252 252 251 251 251 249 245 242 241 248 251 239 232 234 229 219 223 224 216 213 216 209 211 225 225 221 229 230 227 229 228 226 227 226 227 227 226 227 230 235 235 233 236 238 239 239
218 221 223 224 227 233 241 249 254 260 265 265 273 298 321 339 350 356 358 359 360 359 353 335 316 307 303 295 292 290 280 269 255 249 250 248 247 249 250 251 251 251 250 251 250 246 242 243 246 247 238 232 231 225 217 223 226 221 219 222 220 221 231 225 217 225 228 226 229 229 228 227 225 225 225 225 225 231 237 237 236 237 238 240 240
220 224 226 226 228 236 243 249 253 258 261 258 260 280 303 323 337 346 353 358 359 358 353 349 337 313 300 299 298 293 285 279 270 261 259 257 253 249 249 249 249 249 249 248 247 243 239 239 240 238 235 230 227 224 219 221 226 224 221 222 229 235 237 230 224 227 230 229 231 229 229 229 227 225 224 225 225 227 231 231 231 236 237 237 237
222 225 228 229 231 238 245 249 251 256 258 255 254 265 285 307 328 341 351 357 359 357 353 351 347 332 315 304 299 296 290 282 275 271 268 266 264 258 252 248 247 247 247 244 244 244 239 236 237 237 235 229 226 226 221 217 222 227 225 223 228 235 237 238 235 234 237 238 235 231 229 227 225 225 224 223 223 222 226 225 222 228 232 233 234
223 227 230 232 236 241 246 249 251 254 254 253 251 256 271 289 313 333 346 354 359 359 354 349 345 340 333 321 310 305 299 289 279 274 269 267 267 265 261 255 247 243 243 242 239 238 238 237 236 236 235 232 230 230 227 223 222 228 230 226 228 235 238 240 240 238 242 244 241 234 225 220 221 224 223 221 220 218 223 224 215 213 221 224 223
225 230 234 237 241 244 249 251 252 253 252 250 246 249 261 275 295 316 332 346 357 359 355 351 347 342 340 336 326 314 302 291 284 278 270 267 265 264 264 262 255 245 241 240 236 232 232 235 236 235 236 235 232 230 233 235 233 233 234 231 230 234 237 239 238 237 238 241 245 240 221 213 216 220 221 219 217 216 219 222 213 203 208 212 206
231 235 239 243 246 249 252 253 253 253 252 249 245 246 255 265 279 297 312 328 343 352 352 352 350 346 347 346 339 328 315 302 292 284 277 272 266 263 263 263 262 254 244 240 237 234 231 231 234 235 236 238 236 232 232 236 238 236 234 233 234 235 236 237 236 234 234 235 239 239 228 218 217 219 221 219 215 215 216 217 213 202 199 202 196